Index of /20260423/WXO-DD/model_rdps/10km/06/011
Name Last modified Size Description
Parent Directory -
20260423T06Z_MSC_RDPS_AbsoluteVorticity_IsbL-0250_RLatLon0.09_PT011H.grib2 2026-04-23 08:41 748K
20260423T06Z_MSC_RDPS_AbsoluteVorticity_IsbL-0500_RLatLon0.09_PT011H.grib2 2026-04-23 08:41 569K
20260423T06Z_MSC_RDPS_AbsoluteVorticity_IsbL-0700_RLatLon0.09_PT011H.grib2 2026-04-23 08:41 620K
20260423T06Z_MSC_RDPS_AbsoluteVorticity_IsbL-0850_RLatLon0.09_PT011H.grib2 2026-04-23 08:41 782K
20260423T06Z_MSC_RDPS_AirTemp_AGL-120m_RLatLon0.09_PT011H.grib2 2026-04-23 08:41 381K
20260423T06Z_MSC_RDPS_AirTemp_AGL-2m_RLatLon0.09_PT011H.grib2 2026-04-23 08:41 634K
20260423T06Z_MSC_RDPS_AirTemp_AGL-40m_RLatLon0.09_PT011H.grib2 2026-04-23 08:41 391K
20260423T06Z_MSC_RDPS_AirTemp_AGL-80m_RLatLon0.09_PT011H.grib2 2026-04-23 08:41 385K
20260423T06Z_MSC_RDPS_AirTemp_IsbL-0001_RLatLon0.09_PT011H.grib2 2026-04-23 08:41 276K
20260423T06Z_MSC_RDPS_AirTemp_IsbL-0005_RLatLon0.09_PT011H.grib2 2026-04-23 08:41 324K
20260423T06Z_MSC_RDPS_AirTemp_IsbL-0010_RLatLon0.09_PT011H.grib2 2026-04-23 08:41 296K
20260423T06Z_MSC_RDPS_AirTemp_IsbL-0020_RLatLon0.09_PT011H.grib2 2026-04-23 08:41 315K
20260423T06Z_MSC_RDPS_AirTemp_IsbL-0030_RLatLon0.09_PT011H.grib2 2026-04-23 08:41 334K
20260423T06Z_MSC_RDPS_AirTemp_IsbL-0050_RLatLon0.09_PT011H.grib2 2026-04-23 08:41 316K
20260423T06Z_MSC_RDPS_AirTemp_IsbL-0100_RLatLon0.09_PT011H.grib2 2026-04-23 08:41 425K
20260423T06Z_MSC_RDPS_AirTemp_IsbL-0150_RLatLon0.09_PT011H.grib2 2026-04-23 08:41 427K
20260423T06Z_MSC_RDPS_AirTemp_IsbL-0175_RLatLon0.09_PT011H.grib2 2026-04-23 08:41 426K
20260423T06Z_MSC_RDPS_AirTemp_IsbL-0200_RLatLon0.09_PT011H.grib2 2026-04-23 08:41 428K
20260423T06Z_MSC_RDPS_AirTemp_IsbL-0225_RLatLon0.09_PT011H.grib2 2026-04-23 08:41 424K
20260423T06Z_MSC_RDPS_AirTemp_IsbL-0250_RLatLon0.09_PT011H.grib2 2026-04-23 08:41 422K
20260423T06Z_MSC_RDPS_AirTemp_IsbL-0275_RLatLon0.09_PT011H.grib2 2026-04-23 08:41 404K
20260423T06Z_MSC_RDPS_AirTemp_IsbL-0300_RLatLon0.09_PT011H.grib2 2026-04-23 08:41 409K
20260423T06Z_MSC_RDPS_AirTemp_IsbL-0350_RLatLon0.09_PT011H.grib2 2026-04-23 08:41 425K
20260423T06Z_MSC_RDPS_AirTemp_IsbL-0400_RLatLon0.09_PT011H.grib2 2026-04-23 08:41 425K
20260423T06Z_MSC_RDPS_AirTemp_IsbL-0450_RLatLon0.09_PT011H.grib2 2026-04-23 08:41 435K
20260423T06Z_MSC_RDPS_AirTemp_IsbL-0500_RLatLon0.09_PT011H.grib2 2026-04-23 08:41 415K
20260423T06Z_MSC_RDPS_AirTemp_IsbL-0550_RLatLon0.09_PT011H.grib2 2026-04-23 08:41 434K
20260423T06Z_MSC_RDPS_AirTemp_IsbL-0600_RLatLon0.09_PT011H.grib2 2026-04-23 08:41 450K
20260423T06Z_MSC_RDPS_AirTemp_IsbL-0650_RLatLon0.09_PT011H.grib2 2026-04-23 08:41 463K
20260423T06Z_MSC_RDPS_AirTemp_IsbL-0700_RLatLon0.09_PT011H.grib2 2026-04-23 08:41 489K
20260423T06Z_MSC_RDPS_AirTemp_IsbL-0750_RLatLon0.09_PT011H.grib2 2026-04-23 08:41 419K
20260423T06Z_MSC_RDPS_AirTemp_IsbL-0800_RLatLon0.09_PT011H.grib2 2026-04-23 08:41 466K
20260423T06Z_MSC_RDPS_AirTemp_IsbL-0850_RLatLon0.09_PT011H.grib2 2026-04-23 08:41 509K
20260423T06Z_MSC_RDPS_AirTemp_IsbL-0875_RLatLon0.09_PT011H.grib2 2026-04-23 08:41 523K
20260423T06Z_MSC_RDPS_AirTemp_IsbL-0900_RLatLon0.09_PT011H.grib2 2026-04-23 08:41 529K
20260423T06Z_MSC_RDPS_AirTemp_IsbL-0925_RLatLon0.09_PT011H.grib2 2026-04-23 08:41 528K
20260423T06Z_MSC_RDPS_AirTemp_IsbL-0950_RLatLon0.09_PT011H.grib2 2026-04-23 08:41 530K
20260423T06Z_MSC_RDPS_AirTemp_IsbL-0970_RLatLon0.09_PT011H.grib2 2026-04-23 08:41 524K
20260423T06Z_MSC_RDPS_AirTemp_IsbL-0985_RLatLon0.09_PT011H.grib2 2026-04-23 08:41 518K
20260423T06Z_MSC_RDPS_AirTemp_IsbL-1000_RLatLon0.09_PT011H.grib2 2026-04-23 08:41 504K
20260423T06Z_MSC_RDPS_AirTemp_IsbL-1015_RLatLon0.09_PT011H.grib2 2026-04-23 08:41 500K
20260423T06Z_MSC_RDPS_Albedo_Sfc_RLatLon0.09_PT011H.grib2 2026-04-23 08:41 163K
20260423T06Z_MSC_RDPS_CAPE_Sfc_RLatLon0.09_PT011H.grib2 2026-04-23 08:41 1.7M
20260423T06Z_MSC_RDPS_CIN_Sfc_RLatLon0.09_PT011H.grib2 2026-04-23 08:41 1.1M
20260423T06Z_MSC_RDPS_CloudWater_EAtm_RLatLon0.09_PT011H.grib2 2026-04-23 08:41 212K
20260423T06Z_MSC_RDPS_ConvectivePrecip-Accum_Sfc_RLatLon0.09_PT011H.grib2 2026-04-23 08:41 621K
20260423T06Z_MSC_RDPS_DewPointDepression_AGL-2m_RLatLon0.09_PT011H.grib2 2026-04-23 08:41 418K
20260423T06Z_MSC_RDPS_DewPointDepression_IsbL-0001_RLatLon0.09_PT011H.grib2 2026-04-23 08:41 193
20260423T06Z_MSC_RDPS_DewPointDepression_IsbL-0005_RLatLon0.09_PT011H.grib2 2026-04-23 08:41 193
20260423T06Z_MSC_RDPS_DewPointDepression_IsbL-0010_RLatLon0.09_PT011H.grib2 2026-04-23 08:41 193
20260423T06Z_MSC_RDPS_DewPointDepression_IsbL-0020_RLatLon0.09_PT011H.grib2 2026-04-23 08:41 193
20260423T06Z_MSC_RDPS_DewPointDepression_IsbL-0030_RLatLon0.09_PT011H.grib2 2026-04-23 08:41 193
20260423T06Z_MSC_RDPS_DewPointDepression_IsbL-0050_RLatLon0.09_PT011H.grib2 2026-04-23 08:41 85K
20260423T06Z_MSC_RDPS_DewPointDepression_IsbL-0100_RLatLon0.09_PT011H.grib2 2026-04-23 08:41 124K
20260423T06Z_MSC_RDPS_DewPointDepression_IsbL-0150_RLatLon0.09_PT011H.grib2 2026-04-23 08:41 150K
20260423T06Z_MSC_RDPS_DewPointDepression_IsbL-0175_RLatLon0.09_PT011H.grib2 2026-04-23 08:41 193K
20260423T06Z_MSC_RDPS_DewPointDepression_IsbL-0200_RLatLon0.09_PT011H.grib2 2026-04-23 08:41 227K
20260423T06Z_MSC_RDPS_DewPointDepression_IsbL-0225_RLatLon0.09_PT011H.grib2 2026-04-23 08:41 260K
20260423T06Z_MSC_RDPS_DewPointDepression_IsbL-0250_RLatLon0.09_PT011H.grib2 2026-04-23 08:41 296K
20260423T06Z_MSC_RDPS_DewPointDepression_IsbL-0275_RLatLon0.09_PT011H.grib2 2026-04-23 08:41 305K
20260423T06Z_MSC_RDPS_DewPointDepression_IsbL-0300_RLatLon0.09_PT011H.grib2 2026-04-23 08:41 327K
20260423T06Z_MSC_RDPS_DewPointDepression_IsbL-0350_RLatLon0.09_PT011H.grib2 2026-04-23 08:41 334K
20260423T06Z_MSC_RDPS_DewPointDepression_IsbL-0400_RLatLon0.09_PT011H.grib2 2026-04-23 08:41 348K
20260423T06Z_MSC_RDPS_DewPointDepression_IsbL-0450_RLatLon0.09_PT011H.grib2 2026-04-23 08:41 360K
20260423T06Z_MSC_RDPS_DewPointDepression_IsbL-0500_RLatLon0.09_PT011H.grib2 2026-04-23 08:41 369K
20260423T06Z_MSC_RDPS_DewPointDepression_IsbL-0550_RLatLon0.09_PT011H.grib2 2026-04-23 08:41 378K
20260423T06Z_MSC_RDPS_DewPointDepression_IsbL-0600_RLatLon0.09_PT011H.grib2 2026-04-23 08:41 381K
20260423T06Z_MSC_RDPS_DewPointDepression_IsbL-0650_RLatLon0.09_PT011H.grib2 2026-04-23 08:41 380K
20260423T06Z_MSC_RDPS_DewPointDepression_IsbL-0700_RLatLon0.09_PT011H.grib2 2026-04-23 08:41 390K
20260423T06Z_MSC_RDPS_DewPointDepression_IsbL-0750_RLatLon0.09_PT011H.grib2 2026-04-23 08:41 414K
20260423T06Z_MSC_RDPS_DewPointDepression_IsbL-0800_RLatLon0.09_PT011H.grib2 2026-04-23 08:41 446K
20260423T06Z_MSC_RDPS_DewPointDepression_IsbL-0850_RLatLon0.09_PT011H.grib2 2026-04-23 08:41 467K
20260423T06Z_MSC_RDPS_DewPointDepression_IsbL-0875_RLatLon0.09_PT011H.grib2 2026-04-23 08:41 469K
20260423T06Z_MSC_RDPS_DewPointDepression_IsbL-0900_RLatLon0.09_PT011H.grib2 2026-04-23 08:41 462K
20260423T06Z_MSC_RDPS_DewPointDepression_IsbL-0925_RLatLon0.09_PT011H.grib2 2026-04-23 08:41 450K
20260423T06Z_MSC_RDPS_DewPointDepression_IsbL-0950_RLatLon0.09_PT011H.grib2 2026-04-23 08:41 441K
20260423T06Z_MSC_RDPS_DewPointDepression_IsbL-0970_RLatLon0.09_PT011H.grib2 2026-04-23 08:41 439K
20260423T06Z_MSC_RDPS_DewPointDepression_IsbL-0985_RLatLon0.09_PT011H.grib2 2026-04-23 08:41 437K
20260423T06Z_MSC_RDPS_DewPointDepression_IsbL-1000_RLatLon0.09_PT011H.grib2 2026-04-23 08:41 433K
20260423T06Z_MSC_RDPS_DewPointDepression_IsbL-1015_RLatLon0.09_PT011H.grib2 2026-04-23 08:41 425K
20260423T06Z_MSC_RDPS_DewPoint_AGL-2m_RLatLon0.09_PT011H.grib2 2026-04-23 08:41 401K
20260423T06Z_MSC_RDPS_DownwardLongwaveRadiationFlux-Accum_Sfc_RLatLon0.09_PT011H.grib2 2026-04-23 08:41 464K
20260423T06Z_MSC_RDPS_DownwardShortwaveRadiationFlux-Accum_NTAtm_RLatLon0.09_PT011H.grib2 2026-04-23 08:41 98K
20260423T06Z_MSC_RDPS_DownwardShortwaveRadiationFlux-Accum_Sfc_RLatLon0.09_PT011H.grib2 2026-04-23 08:41 450K
20260423T06Z_MSC_RDPS_FreezingRain-Accum1h_Sfc_RLatLon0.09_PT011H.grib2 2026-04-23 08:41 16K
20260423T06Z_MSC_RDPS_FreezingRain-Accum_Sfc_RLatLon0.09_PT011H.grib2 2026-04-23 08:41 62K
20260423T06Z_MSC_RDPS_GeopotentialHeight_IsbL-0001_RLatLon0.09_PT011H.grib2 2026-04-23 08:41 273K
20260423T06Z_MSC_RDPS_GeopotentialHeight_IsbL-0005_RLatLon0.09_PT011H.grib2 2026-04-23 08:41 307K
20260423T06Z_MSC_RDPS_GeopotentialHeight_IsbL-0010_RLatLon0.09_PT011H.grib2 2026-04-23 08:41 337K
20260423T06Z_MSC_RDPS_GeopotentialHeight_IsbL-0020_RLatLon0.09_PT011H.grib2 2026-04-23 08:41 304K
20260423T06Z_MSC_RDPS_GeopotentialHeight_IsbL-0030_RLatLon0.09_PT011H.grib2 2026-04-23 08:41 307K
20260423T06Z_MSC_RDPS_GeopotentialHeight_IsbL-0050_RLatLon0.09_PT011H.grib2 2026-04-23 08:41 308K
20260423T06Z_MSC_RDPS_GeopotentialHeight_IsbL-0100_RLatLon0.09_PT011H.grib2 2026-04-23 08:41 288K
20260423T06Z_MSC_RDPS_GeopotentialHeight_IsbL-0150_RLatLon0.09_PT011H.grib2 2026-04-23 08:41 230K
20260423T06Z_MSC_RDPS_GeopotentialHeight_IsbL-0175_RLatLon0.09_PT011H.grib2 2026-04-23 08:41 234K
20260423T06Z_MSC_RDPS_GeopotentialHeight_IsbL-0200_RLatLon0.09_PT011H.grib2 2026-04-23 08:41 239K
20260423T06Z_MSC_RDPS_GeopotentialHeight_IsbL-0225_RLatLon0.09_PT011H.grib2 2026-04-23 08:41 240K
20260423T06Z_MSC_RDPS_GeopotentialHeight_IsbL-0250_RLatLon0.09_PT011H.grib2 2026-04-23 08:41 242K
20260423T06Z_MSC_RDPS_GeopotentialHeight_IsbL-0275_RLatLon0.09_PT011H.grib2 2026-04-23 08:41 240K
20260423T06Z_MSC_RDPS_GeopotentialHeight_IsbL-0300_RLatLon0.09_PT011H.grib2 2026-04-23 08:41 239K
20260423T06Z_MSC_RDPS_GeopotentialHeight_IsbL-0350_RLatLon0.09_PT011H.grib2 2026-04-23 08:41 235K
20260423T06Z_MSC_RDPS_GeopotentialHeight_IsbL-0400_RLatLon0.09_PT011H.grib2 2026-04-23 08:41 231K
20260423T06Z_MSC_RDPS_GeopotentialHeight_IsbL-0450_RLatLon0.09_PT011H.grib2 2026-04-23 08:41 300K
20260423T06Z_MSC_RDPS_GeopotentialHeight_IsbL-0500_RLatLon0.09_PT011H.grib2 2026-04-23 08:41 296K
20260423T06Z_MSC_RDPS_GeopotentialHeight_IsbL-0550_RLatLon0.09_PT011H.grib2 2026-04-23 08:41 292K
20260423T06Z_MSC_RDPS_GeopotentialHeight_IsbL-0600_RLatLon0.09_PT011H.grib2 2026-04-23 08:41 287K
20260423T06Z_MSC_RDPS_GeopotentialHeight_IsbL-0650_RLatLon0.09_PT011H.grib2 2026-04-23 08:41 259K
20260423T06Z_MSC_RDPS_GeopotentialHeight_IsbL-0700_RLatLon0.09_PT011H.grib2 2026-04-23 08:41 258K
20260423T06Z_MSC_RDPS_GeopotentialHeight_IsbL-0750_RLatLon0.09_PT011H.grib2 2026-04-23 08:41 260K
20260423T06Z_MSC_RDPS_GeopotentialHeight_IsbL-0800_RLatLon0.09_PT011H.grib2 2026-04-23 08:41 355K
20260423T06Z_MSC_RDPS_GeopotentialHeight_IsbL-0850_RLatLon0.09_PT011H.grib2 2026-04-23 08:41 365K
20260423T06Z_MSC_RDPS_GeopotentialHeight_IsbL-0875_RLatLon0.09_PT011H.grib2 2026-04-23 08:41 368K
20260423T06Z_MSC_RDPS_GeopotentialHeight_IsbL-0900_RLatLon0.09_PT011H.grib2 2026-04-23 08:41 371K
20260423T06Z_MSC_RDPS_GeopotentialHeight_IsbL-0925_RLatLon0.09_PT011H.grib2 2026-04-23 08:41 373K
20260423T06Z_MSC_RDPS_GeopotentialHeight_IsbL-0950_RLatLon0.09_PT011H.grib2 2026-04-23 08:41 374K
20260423T06Z_MSC_RDPS_GeopotentialHeight_IsbL-0970_RLatLon0.09_PT011H.grib2 2026-04-23 08:41 382K
20260423T06Z_MSC_RDPS_GeopotentialHeight_IsbL-0985_RLatLon0.09_PT011H.grib2 2026-04-23 08:41 392K
20260423T06Z_MSC_RDPS_GeopotentialHeight_IsbL-1000_RLatLon0.09_PT011H.grib2 2026-04-23 08:41 405K
20260423T06Z_MSC_RDPS_GeopotentialHeight_IsbL-1015_RLatLon0.09_PT011H.grib2 2026-04-23 08:41 420K
20260423T06Z_MSC_RDPS_Humidex_Sfc_RLatLon0.09_PT011H.grib2 2026-04-23 08:41 2.4M
20260423T06Z_MSC_RDPS_IcePellets-Accum1h_Sfc_RLatLon0.09_PT011H.grib2 2026-04-23 08:41 8.8K
20260423T06Z_MSC_RDPS_IcePellets-Accum_Sfc_RLatLon0.09_PT011H.grib2 2026-04-23 08:41 29K
20260423T06Z_MSC_RDPS_KIndex_Sfc_RLatLon0.09_PT011H.grib2 2026-04-23 08:41 2.3M
20260423T06Z_MSC_RDPS_LatentHeatNetFlux_Sfc_RLatLon0.09_PT011H.grib2 2026-04-23 08:41 308K
20260423T06Z_MSC_RDPS_LiftedIndex-MU-VT_IsbL-0500_RLatLon0.09_PT011H.grib2 2026-04-23 08:41 2.4M
20260423T06Z_MSC_RDPS_NetLongwaveRadiationFlux-Accum_Sfc_RLatLon0.09_PT011H.grib2 2026-04-23 08:41 605K
20260423T06Z_MSC_RDPS_NetShortwaveRadiationFlux-Accum_Sfc_RLatLon0.09_PT011H.grib2 2026-04-23 08:41 449K
20260423T06Z_MSC_RDPS_PlanetaryBoundaryLayerHeight_Sfc_RLatLon0.09_PT011H.grib2 2026-04-23 08:41 1.0M
20260423T06Z_MSC_RDPS_Precip-Accum1h_Sfc_RLatLon0.09_PT011H.grib2 2026-04-23 08:41 1.2M
20260423T06Z_MSC_RDPS_Precip-Accum_Sfc_RLatLon0.09_PT011H.grib2 2026-04-23 08:41 1.5M
20260423T06Z_MSC_RDPS_PrecipRate_Sfc_RLatLon0.09_PT011H.grib2 2026-04-23 08:41 171K
20260423T06Z_MSC_RDPS_PrecipType-Instant_Sfc_RLatLon0.09_PT011H.grib2 2026-04-23 08:41 562K
20260423T06Z_MSC_RDPS_Pressure-Trend3h_Sfc_RLatLon0.09_PT011H.grib2 2026-04-23 08:41 1.2M
20260423T06Z_MSC_RDPS_Pressure_MSL_RLatLon0.09_PT011H.grib2 2026-04-23 08:41 302K
20260423T06Z_MSC_RDPS_Pressure_PVU-1.5_RLatLon0.09_PT011H.grib2 2026-04-23 08:41 2.3M
20260423T06Z_MSC_RDPS_Pressure_PVU-1_RLatLon0.09_PT011H.grib2 2026-04-23 08:41 2.4M
20260423T06Z_MSC_RDPS_Pressure_PVU-2_RLatLon0.09_PT011H.grib2 2026-04-23 08:41 2.4M
20260423T06Z_MSC_RDPS_Pressure_Sfc_RLatLon0.09_PT011H.grib2 2026-04-23 08:41 502K
20260423T06Z_MSC_RDPS_RadiativeTemp_Sfc_RLatLon0.09_PT011H.grib2 2026-04-23 08:41 324K
20260423T06Z_MSC_RDPS_Rain-Accum1h_Sfc_RLatLon0.09_PT011H.grib2 2026-04-23 08:41 569K
20260423T06Z_MSC_RDPS_Rain-Accum_Sfc_RLatLon0.09_PT011H.grib2 2026-04-23 08:41 1.1M
20260423T06Z_MSC_RDPS_RelativeHumidity_AGL-2m_RLatLon0.09_PT011H.grib2 2026-04-23 08:41 1.0M
20260423T06Z_MSC_RDPS_RelativeHumidity_IsbL-0010_RLatLon0.09_PT011H.grib2 2026-04-23 08:41 630K
20260423T06Z_MSC_RDPS_RelativeHumidity_IsbL-0020_RLatLon0.09_PT011H.grib2 2026-04-23 08:41 655K
20260423T06Z_MSC_RDPS_RelativeHumidity_IsbL-0030_RLatLon0.09_PT011H.grib2 2026-04-23 08:41 542K
20260423T06Z_MSC_RDPS_RelativeHumidity_IsbL-0050_RLatLon0.09_PT011H.grib2 2026-04-23 08:41 373K
20260423T06Z_MSC_RDPS_RelativeHumidity_IsbL-0100_RLatLon0.09_PT011H.grib2 2026-04-23 08:41 360K
20260423T06Z_MSC_RDPS_RelativeHumidity_IsbL-0150_RLatLon0.09_PT011H.grib2 2026-04-23 08:41 381K
20260423T06Z_MSC_RDPS_RelativeHumidity_IsbL-0175_RLatLon0.09_PT011H.grib2 2026-04-23 08:41 478K
20260423T06Z_MSC_RDPS_RelativeHumidity_IsbL-0200_RLatLon0.09_PT011H.grib2 2026-04-23 08:41 567K
20260423T06Z_MSC_RDPS_RelativeHumidity_IsbL-0225_RLatLon0.09_PT011H.grib2 2026-04-23 08:41 629K
20260423T06Z_MSC_RDPS_RelativeHumidity_IsbL-0250_RLatLon0.09_PT011H.grib2 2026-04-23 08:41 692K
20260423T06Z_MSC_RDPS_RelativeHumidity_IsbL-0275_RLatLon0.09_PT011H.grib2 2026-04-23 08:41 713K
20260423T06Z_MSC_RDPS_RelativeHumidity_IsbL-0300_RLatLon0.09_PT011H.grib2 2026-04-23 08:41 755K
20260423T06Z_MSC_RDPS_RelativeHumidity_IsbL-0350_RLatLon0.09_PT011H.grib2 2026-04-23 08:41 778K
20260423T06Z_MSC_RDPS_RelativeHumidity_IsbL-0400_RLatLon0.09_PT011H.grib2 2026-04-23 08:41 791K
20260423T06Z_MSC_RDPS_RelativeHumidity_IsbL-0450_RLatLon0.09_PT011H.grib2 2026-04-23 08:41 801K
20260423T06Z_MSC_RDPS_RelativeHumidity_IsbL-0500_RLatLon0.09_PT011H.grib2 2026-04-23 08:41 822K
20260423T06Z_MSC_RDPS_RelativeHumidity_IsbL-0550_RLatLon0.09_PT011H.grib2 2026-04-23 08:41 843K
20260423T06Z_MSC_RDPS_RelativeHumidity_IsbL-0600_RLatLon0.09_PT011H.grib2 2026-04-23 08:41 857K
20260423T06Z_MSC_RDPS_RelativeHumidity_IsbL-0650_RLatLon0.09_PT011H.grib2 2026-04-23 08:41 865K
20260423T06Z_MSC_RDPS_RelativeHumidity_IsbL-0700_RLatLon0.09_PT011H.grib2 2026-04-23 08:41 871K
20260423T06Z_MSC_RDPS_RelativeHumidity_IsbL-0750_RLatLon0.09_PT011H.grib2 2026-04-23 08:41 919K
20260423T06Z_MSC_RDPS_RelativeHumidity_IsbL-0800_RLatLon0.09_PT011H.grib2 2026-04-23 08:41 1.0M
20260423T06Z_MSC_RDPS_RelativeHumidity_IsbL-0850_RLatLon0.09_PT011H.grib2 2026-04-23 08:41 1.0M
20260423T06Z_MSC_RDPS_RelativeHumidity_IsbL-0875_RLatLon0.09_PT011H.grib2 2026-04-23 08:41 1.0M
20260423T06Z_MSC_RDPS_RelativeHumidity_IsbL-0900_RLatLon0.09_PT011H.grib2 2026-04-23 08:41 1.1M
20260423T06Z_MSC_RDPS_RelativeHumidity_IsbL-0925_RLatLon0.09_PT011H.grib2 2026-04-23 08:41 1.1M
20260423T06Z_MSC_RDPS_RelativeHumidity_IsbL-0950_RLatLon0.09_PT011H.grib2 2026-04-23 08:41 1.0M
20260423T06Z_MSC_RDPS_RelativeHumidity_IsbL-0970_RLatLon0.09_PT011H.grib2 2026-04-23 08:41 1.0M
20260423T06Z_MSC_RDPS_RelativeHumidity_IsbL-0985_RLatLon0.09_PT011H.grib2 2026-04-23 08:41 1.0M
20260423T06Z_MSC_RDPS_RelativeHumidity_IsbL-1000_RLatLon0.09_PT011H.grib2 2026-04-23 08:41 1.0M
20260423T06Z_MSC_RDPS_RelativeHumidity_IsbL-1015_RLatLon0.09_PT011H.grib2 2026-04-23 08:41 1.0M
20260423T06Z_MSC_RDPS_Runoff-Accum_Sfc_RLatLon0.09_PT011H.grib2 2026-04-23 08:41 40K
20260423T06Z_MSC_RDPS_SWEATIndex_Sfc_RLatLon0.09_PT011H.grib2 2026-04-23 08:41 2.4M
20260423T06Z_MSC_RDPS_SeeingIndex_EAtm_RLatLon0.09_PT011H.grib2 2026-04-23 08:41 1.0M
20260423T06Z_MSC_RDPS_SensibleHeatNetFlux_Sfc_RLatLon0.09_PT011H.grib2 2026-04-23 08:41 376K
20260423T06Z_MSC_RDPS_ShowalterIndex_IsbL-0500_RLatLon0.09_PT011H.grib2 2026-04-23 08:41 2.6M
20260423T06Z_MSC_RDPS_SkyTransparencyIndex_EAtm_RLatLon0.09_PT011H.grib2 2026-04-23 08:41 724K
20260423T06Z_MSC_RDPS_Snow-Accum1h_Sfc_RLatLon0.09_PT011H.grib2 2026-04-23 08:41 454K
20260423T06Z_MSC_RDPS_Snow-Accum_Sfc_RLatLon0.09_PT011H.grib2 2026-04-23 08:41 649K
20260423T06Z_MSC_RDPS_SnowDensity_Sfc_RLatLon0.09_PT011H.grib2 2026-04-23 08:41 176K
20260423T06Z_MSC_RDPS_SnowDepth_Sfc_RLatLon0.09_PT011H.grib2 2026-04-23 08:41 713K
20260423T06Z_MSC_RDPS_SoilTemp_DBS-0to10cm_RLatLon0.09_PT011H.grib2 2026-04-23 08:41 207K
20260423T06Z_MSC_RDPS_SoilTemp_Sfc_RLatLon0.09_PT011H.grib2 2026-04-23 08:41 293K
20260423T06Z_MSC_RDPS_SoilVolumetricIceContent_Sfc_RLatLon0.09_PT011H.grib2 2026-04-23 08:41 168K
20260423T06Z_MSC_RDPS_SoilVolumetricWaterContent_DBS-0to10cm_RLatLon0.09_PT011H.grib2 2026-04-23 08:41 251K
20260423T06Z_MSC_RDPS_SoilVolumetricWaterContent_DBS-0to1cm_RLatLon0.09_PT011H.grib2 2026-04-23 08:41 334K
20260423T06Z_MSC_RDPS_SpecificHumidity_AGL-120m_RLatLon0.09_PT011H.grib2 2026-04-23 08:41 482K
20260423T06Z_MSC_RDPS_SpecificHumidity_AGL-2m_RLatLon0.09_PT011H.grib2 2026-04-23 08:41 650K
20260423T06Z_MSC_RDPS_SpecificHumidity_AGL-40m_RLatLon0.09_PT011H.grib2 2026-04-23 08:41 487K
20260423T06Z_MSC_RDPS_SpecificHumidity_AGL-80m_RLatLon0.09_PT011H.grib2 2026-04-23 08:41 483K
20260423T06Z_MSC_RDPS_SpecificHumidity_IsbL-0001_RLatLon0.09_PT011H.grib2 2026-04-23 08:41 338K
20260423T06Z_MSC_RDPS_SpecificHumidity_IsbL-0005_RLatLon0.09_PT011H.grib2 2026-04-23 08:41 347K
20260423T06Z_MSC_RDPS_SpecificHumidity_IsbL-0010_RLatLon0.09_PT011H.grib2 2026-04-23 08:41 389K
20260423T06Z_MSC_RDPS_SpecificHumidity_IsbL-0020_RLatLon0.09_PT011H.grib2 2026-04-23 08:41 381K
20260423T06Z_MSC_RDPS_SpecificHumidity_IsbL-0030_RLatLon0.09_PT011H.grib2 2026-04-23 08:41 478K
20260423T06Z_MSC_RDPS_SpecificHumidity_IsbL-0050_RLatLon0.09_PT011H.grib2 2026-04-23 08:41 470K
20260423T06Z_MSC_RDPS_SpecificHumidity_IsbL-0100_RLatLon0.09_PT011H.grib2 2026-04-23 08:41 523K
20260423T06Z_MSC_RDPS_SpecificHumidity_IsbL-0150_RLatLon0.09_PT011H.grib2 2026-04-23 08:41 434K
20260423T06Z_MSC_RDPS_SpecificHumidity_IsbL-0175_RLatLon0.09_PT011H.grib2 2026-04-23 08:41 431K
20260423T06Z_MSC_RDPS_SpecificHumidity_IsbL-0200_RLatLon0.09_PT011H.grib2 2026-04-23 08:41 554K
20260423T06Z_MSC_RDPS_SpecificHumidity_IsbL-0225_RLatLon0.09_PT011H.grib2 2026-04-23 08:41 556K
20260423T06Z_MSC_RDPS_SpecificHumidity_IsbL-0250_RLatLon0.09_PT011H.grib2 2026-04-23 08:41 556K
20260423T06Z_MSC_RDPS_SpecificHumidity_IsbL-0275_RLatLon0.09_PT011H.grib2 2026-04-23 08:41 472K
20260423T06Z_MSC_RDPS_SpecificHumidity_IsbL-0300_RLatLon0.09_PT011H.grib2 2026-04-23 08:41 543K
20260423T06Z_MSC_RDPS_SpecificHumidity_IsbL-0350_RLatLon0.09_PT011H.grib2 2026-04-23 08:41 535K
20260423T06Z_MSC_RDPS_SpecificHumidity_IsbL-0400_RLatLon0.09_PT011H.grib2 2026-04-23 08:41 519K
20260423T06Z_MSC_RDPS_SpecificHumidity_IsbL-0450_RLatLon0.09_PT011H.grib2 2026-04-23 08:41 591K
20260423T06Z_MSC_RDPS_SpecificHumidity_IsbL-0500_RLatLon0.09_PT011H.grib2 2026-04-23 08:41 513K
20260423T06Z_MSC_RDPS_SpecificHumidity_IsbL-0550_RLatLon0.09_PT011H.grib2 2026-04-23 08:41 570K
20260423T06Z_MSC_RDPS_SpecificHumidity_IsbL-0600_RLatLon0.09_PT011H.grib2 2026-04-23 08:41 633K
20260423T06Z_MSC_RDPS_SpecificHumidity_IsbL-0650_RLatLon0.09_PT011H.grib2 2026-04-23 08:41 543K
20260423T06Z_MSC_RDPS_SpecificHumidity_IsbL-0700_RLatLon0.09_PT011H.grib2 2026-04-23 08:41 581K
20260423T06Z_MSC_RDPS_SpecificHumidity_IsbL-0750_RLatLon0.09_PT011H.grib2 2026-04-23 08:41 639K
20260423T06Z_MSC_RDPS_SpecificHumidity_IsbL-0800_RLatLon0.09_PT011H.grib2 2026-04-23 08:41 714K
20260423T06Z_MSC_RDPS_SpecificHumidity_IsbL-0850_RLatLon0.09_PT011H.grib2 2026-04-23 08:41 788K
20260423T06Z_MSC_RDPS_SpecificHumidity_IsbL-0875_RLatLon0.09_PT011H.grib2 2026-04-23 08:41 810K
20260423T06Z_MSC_RDPS_SpecificHumidity_IsbL-0900_RLatLon0.09_PT011H.grib2 2026-04-23 08:41 823K
20260423T06Z_MSC_RDPS_SpecificHumidity_IsbL-0925_RLatLon0.09_PT011H.grib2 2026-04-23 08:41 824K
20260423T06Z_MSC_RDPS_SpecificHumidity_IsbL-0950_RLatLon0.09_PT011H.grib2 2026-04-23 08:41 685K
20260423T06Z_MSC_RDPS_SpecificHumidity_IsbL-0970_RLatLon0.09_PT011H.grib2 2026-04-23 08:41 682K
20260423T06Z_MSC_RDPS_SpecificHumidity_IsbL-0985_RLatLon0.09_PT011H.grib2 2026-04-23 08:41 679K
20260423T06Z_MSC_RDPS_SpecificHumidity_IsbL-1000_RLatLon0.09_PT011H.grib2 2026-04-23 08:41 672K
20260423T06Z_MSC_RDPS_SpecificHumidity_IsbL-1015_RLatLon0.09_PT011H.grib2 2026-04-23 08:41 662K
20260423T06Z_MSC_RDPS_SpecificHumidity_Sfc_RLatLon0.09_PT011H.grib2 2026-04-23 08:41 329K
20260423T06Z_MSC_RDPS_StormRelativeHelicity_EtaL-10000_RLatLon0.09_PT011H.grib2 2026-04-23 08:41 1.1M
20260423T06Z_MSC_RDPS_StormSeverityIndex_EtaL-10000_RLatLon0.09_PT011H.grib2 2026-04-23 08:41 1.2M
20260423T06Z_MSC_RDPS_Thickness_IsbL-0850to0700_RLatLon0.09_PT011H.grib2 2026-04-23 08:41 179K
20260423T06Z_MSC_RDPS_Thickness_IsbL-1000to0500_RLatLon0.09_PT011H.grib2 2026-04-23 08:41 203K
20260423T06Z_MSC_RDPS_Thickness_IsbL-1000to0850_RLatLon0.09_PT011H.grib2 2026-04-23 08:41 192K
20260423T06Z_MSC_RDPS_TotalCloudCover_Sfc_RLatLon0.09_PT011H.grib2 2026-04-23 08:41 653K
20260423T06Z_MSC_RDPS_TotalTotalsIndex_Sfc_RLatLon0.09_PT011H.grib2 2026-04-23 08:41 2.3M
20260423T06Z_MSC_RDPS_UVIndex-ClearSky_Sfc_RLatLon0.09_PT011H.grib2 2026-04-23 08:41 218K
20260423T06Z_MSC_RDPS_UVIndex_Sfc_RLatLon0.09_PT011H.grib2 2026-04-23 08:41 501K
20260423T06Z_MSC_RDPS_UpwardLongwaveRadiationFlux_NTAtm_RLatLon0.09_PT011H.grib2 2026-04-23 08:41 490K
20260423T06Z_MSC_RDPS_UpwardShortwaveRadiationFlux_NTAtm_RLatLon0.09_PT011H.grib2 2026-04-23 08:41 538K
20260423T06Z_MSC_RDPS_VerticalVelocity_IsbL-0250_RLatLon0.09_PT011H.grib2 2026-04-23 08:41 599K
20260423T06Z_MSC_RDPS_VerticalVelocity_IsbL-0500_RLatLon0.09_PT011H.grib2 2026-04-23 08:41 587K
20260423T06Z_MSC_RDPS_VerticalVelocity_IsbL-0700_RLatLon0.09_PT011H.grib2 2026-04-23 08:41 607K
20260423T06Z_MSC_RDPS_VerticalVelocity_IsbL-0850_RLatLon0.09_PT011H.grib2 2026-04-23 08:41 712K
20260423T06Z_MSC_RDPS_VerticalWindShear_EtaL-6500_RLatLon0.09_PT011H.grib2 2026-04-23 08:41 1.2M
20260423T06Z_MSC_RDPS_WindChill_Sfc_RLatLon0.09_PT011H.grib2 2026-04-23 08:41 1.2M
20260423T06Z_MSC_RDPS_WindDir_AGL-10m_RLatLon0.09_PT011H.grib2 2026-04-23 08:41 954K
20260423T06Z_MSC_RDPS_WindDir_AGL-120m_RLatLon0.09_PT011H.grib2 2026-04-23 08:41 602K
20260423T06Z_MSC_RDPS_WindDir_AGL-40m_RLatLon0.09_PT011H.grib2 2026-04-23 08:41 622K
20260423T06Z_MSC_RDPS_WindDir_AGL-80m_RLatLon0.09_PT011H.grib2 2026-04-23 08:41 610K
20260423T06Z_MSC_RDPS_WindDir_IsbL-0001_RLatLon0.09_PT011H.grib2 2026-04-23 08:41 272K
20260423T06Z_MSC_RDPS_WindDir_IsbL-0005_RLatLon0.09_PT011H.grib2 2026-04-23 08:41 360K
20260423T06Z_MSC_RDPS_WindDir_IsbL-0010_RLatLon0.09_PT011H.grib2 2026-04-23 08:41 369K
20260423T06Z_MSC_RDPS_WindDir_IsbL-0020_RLatLon0.09_PT011H.grib2 2026-04-23 08:41 390K
20260423T06Z_MSC_RDPS_WindDir_IsbL-0030_RLatLon0.09_PT011H.grib2 2026-04-23 08:41 393K
20260423T06Z_MSC_RDPS_WindDir_IsbL-0050_RLatLon0.09_PT011H.grib2 2026-04-23 08:41 426K
20260423T06Z_MSC_RDPS_WindDir_IsbL-0100_RLatLon0.09_PT011H.grib2 2026-04-23 08:41 422K
20260423T06Z_MSC_RDPS_WindDir_IsbL-0150_RLatLon0.09_PT011H.grib2 2026-04-23 08:41 420K
20260423T06Z_MSC_RDPS_WindDir_IsbL-0175_RLatLon0.09_PT011H.grib2 2026-04-23 08:41 436K
20260423T06Z_MSC_RDPS_WindDir_IsbL-0200_RLatLon0.09_PT011H.grib2 2026-04-23 08:41 445K
20260423T06Z_MSC_RDPS_WindDir_IsbL-0225_RLatLon0.09_PT011H.grib2 2026-04-23 08:41 437K
20260423T06Z_MSC_RDPS_WindDir_IsbL-0250_RLatLon0.09_PT011H.grib2 2026-04-23 08:41 436K
20260423T06Z_MSC_RDPS_WindDir_IsbL-0275_RLatLon0.09_PT011H.grib2 2026-04-23 08:41 455K
20260423T06Z_MSC_RDPS_WindDir_IsbL-0300_RLatLon0.09_PT011H.grib2 2026-04-23 08:41 457K
20260423T06Z_MSC_RDPS_WindDir_IsbL-0350_RLatLon0.09_PT011H.grib2 2026-04-23 08:41 483K
20260423T06Z_MSC_RDPS_WindDir_IsbL-0400_RLatLon0.09_PT011H.grib2 2026-04-23 08:41 504K
20260423T06Z_MSC_RDPS_WindDir_IsbL-0450_RLatLon0.09_PT011H.grib2 2026-04-23 08:41 526K
20260423T06Z_MSC_RDPS_WindDir_IsbL-0500_RLatLon0.09_PT011H.grib2 2026-04-23 08:41 549K
20260423T06Z_MSC_RDPS_WindDir_IsbL-0550_RLatLon0.09_PT011H.grib2 2026-04-23 08:41 564K
20260423T06Z_MSC_RDPS_WindDir_IsbL-0600_RLatLon0.09_PT011H.grib2 2026-04-23 08:41 587K
20260423T06Z_MSC_RDPS_WindDir_IsbL-0650_RLatLon0.09_PT011H.grib2 2026-04-23 08:41 630K
20260423T06Z_MSC_RDPS_WindDir_IsbL-0700_RLatLon0.09_PT011H.grib2 2026-04-23 08:41 675K
20260423T06Z_MSC_RDPS_WindDir_IsbL-0750_RLatLon0.09_PT011H.grib2 2026-04-23 08:41 723K
20260423T06Z_MSC_RDPS_WindDir_IsbL-0800_RLatLon0.09_PT011H.grib2 2026-04-23 08:41 791K
20260423T06Z_MSC_RDPS_WindDir_IsbL-0850_RLatLon0.09_PT011H.grib2 2026-04-23 08:41 853K
20260423T06Z_MSC_RDPS_WindDir_IsbL-0875_RLatLon0.09_PT011H.grib2 2026-04-23 08:41 874K
20260423T06Z_MSC_RDPS_WindDir_IsbL-0900_RLatLon0.09_PT011H.grib2 2026-04-23 08:41 886K
20260423T06Z_MSC_RDPS_WindDir_IsbL-0925_RLatLon0.09_PT011H.grib2 2026-04-23 08:41 891K
20260423T06Z_MSC_RDPS_WindDir_IsbL-0950_RLatLon0.09_PT011H.grib2 2026-04-23 08:41 890K
20260423T06Z_MSC_RDPS_WindDir_IsbL-0970_RLatLon0.09_PT011H.grib2 2026-04-23 08:41 902K
20260423T06Z_MSC_RDPS_WindDir_IsbL-0985_RLatLon0.09_PT011H.grib2 2026-04-23 08:41 914K
20260423T06Z_MSC_RDPS_WindDir_IsbL-1000_RLatLon0.09_PT011H.grib2 2026-04-23 08:41 929K
20260423T06Z_MSC_RDPS_WindDir_IsbL-1015_RLatLon0.09_PT011H.grib2 2026-04-23 08:41 944K
20260423T06Z_MSC_RDPS_WindGust-Max_AGL-10m_RLatLon0.09_PT011H.grib2 2026-04-23 08:41 1.0M
20260423T06Z_MSC_RDPS_WindGust-Min_AGL-10m_RLatLon0.09_PT011H.grib2 2026-04-23 08:41 1.0M
20260423T06Z_MSC_RDPS_WindGust_AGL-10m_RLatLon0.09_PT011H.grib2 2026-04-23 08:41 1.0M
20260423T06Z_MSC_RDPS_WindSpeed_AGL-10m_RLatLon0.09_PT011H.grib2 2026-04-23 08:41 848K
20260423T06Z_MSC_RDPS_WindSpeed_AGL-120m_RLatLon0.09_PT011H.grib2 2026-04-23 08:41 552K
20260423T06Z_MSC_RDPS_WindSpeed_AGL-40m_RLatLon0.09_PT011H.grib2 2026-04-23 08:41 547K
20260423T06Z_MSC_RDPS_WindSpeed_AGL-80m_RLatLon0.09_PT011H.grib2 2026-04-23 08:41 542K
20260423T06Z_MSC_RDPS_WindSpeed_IsbL-0001_RLatLon0.09_PT011H.grib2 2026-04-23 08:41 248K
20260423T06Z_MSC_RDPS_WindSpeed_IsbL-0005_RLatLon0.09_PT011H.grib2 2026-04-23 08:41 291K
20260423T06Z_MSC_RDPS_WindSpeed_IsbL-0010_RLatLon0.09_PT011H.grib2 2026-04-23 08:41 302K
20260423T06Z_MSC_RDPS_WindSpeed_IsbL-0020_RLatLon0.09_PT011H.grib2 2026-04-23 08:41 417K
20260423T06Z_MSC_RDPS_WindSpeed_IsbL-0030_RLatLon0.09_PT011H.grib2 2026-04-23 08:41 324K
20260423T06Z_MSC_RDPS_WindSpeed_IsbL-0050_RLatLon0.09_PT011H.grib2 2026-04-23 08:41 461K
20260423T06Z_MSC_RDPS_WindSpeed_IsbL-0100_RLatLon0.09_PT011H.grib2 2026-04-23 08:41 484K
20260423T06Z_MSC_RDPS_WindSpeed_IsbL-0150_RLatLon0.09_PT011H.grib2 2026-04-23 08:41 380K
20260423T06Z_MSC_RDPS_WindSpeed_IsbL-0175_RLatLon0.09_PT011H.grib2 2026-04-23 08:41 412K
20260423T06Z_MSC_RDPS_WindSpeed_IsbL-0200_RLatLon0.09_PT011H.grib2 2026-04-23 08:41 451K
20260423T06Z_MSC_RDPS_WindSpeed_IsbL-0225_RLatLon0.09_PT011H.grib2 2026-04-23 08:41 454K
20260423T06Z_MSC_RDPS_WindSpeed_IsbL-0250_RLatLon0.09_PT011H.grib2 2026-04-23 08:41 455K
20260423T06Z_MSC_RDPS_WindSpeed_IsbL-0275_RLatLon0.09_PT011H.grib2 2026-04-23 08:41 469K
20260423T06Z_MSC_RDPS_WindSpeed_IsbL-0300_RLatLon0.09_PT011H.grib2 2026-04-23 08:41 464K
20260423T06Z_MSC_RDPS_WindSpeed_IsbL-0350_RLatLon0.09_PT011H.grib2 2026-04-23 08:41 475K
20260423T06Z_MSC_RDPS_WindSpeed_IsbL-0400_RLatLon0.09_PT011H.grib2 2026-04-23 08:41 464K
20260423T06Z_MSC_RDPS_WindSpeed_IsbL-0450_RLatLon0.09_PT011H.grib2 2026-04-23 08:41 464K
20260423T06Z_MSC_RDPS_WindSpeed_IsbL-0500_RLatLon0.09_PT011H.grib2 2026-04-23 08:41 467K
20260423T06Z_MSC_RDPS_WindSpeed_IsbL-0550_RLatLon0.09_PT011H.grib2 2026-04-23 08:41 589K
20260423T06Z_MSC_RDPS_WindSpeed_IsbL-0600_RLatLon0.09_PT011H.grib2 2026-04-23 08:41 599K
20260423T06Z_MSC_RDPS_WindSpeed_IsbL-0650_RLatLon0.09_PT011H.grib2 2026-04-23 08:41 618K
20260423T06Z_MSC_RDPS_WindSpeed_IsbL-0700_RLatLon0.09_PT011H.grib2 2026-04-23 08:41 637K
20260423T06Z_MSC_RDPS_WindSpeed_IsbL-0750_RLatLon0.09_PT011H.grib2 2026-04-23 08:41 711K
20260423T06Z_MSC_RDPS_WindSpeed_IsbL-0800_RLatLon0.09_PT011H.grib2 2026-04-23 08:41 766K
20260423T06Z_MSC_RDPS_WindSpeed_IsbL-0850_RLatLon0.09_PT011H.grib2 2026-04-23 08:41 819K
20260423T06Z_MSC_RDPS_WindSpeed_IsbL-0875_RLatLon0.09_PT011H.grib2 2026-04-23 08:41 838K
20260423T06Z_MSC_RDPS_WindSpeed_IsbL-0900_RLatLon0.09_PT011H.grib2 2026-04-23 08:41 850K
20260423T06Z_MSC_RDPS_WindSpeed_IsbL-0925_RLatLon0.09_PT011H.grib2 2026-04-23 08:41 859K
20260423T06Z_MSC_RDPS_WindSpeed_IsbL-0950_RLatLon0.09_PT011H.grib2 2026-04-23 08:41 860K
20260423T06Z_MSC_RDPS_WindSpeed_IsbL-0970_RLatLon0.09_PT011H.grib2 2026-04-23 08:41 867K
20260423T06Z_MSC_RDPS_WindSpeed_IsbL-0985_RLatLon0.09_PT011H.grib2 2026-04-23 08:41 863K
20260423T06Z_MSC_RDPS_WindSpeed_IsbL-1000_RLatLon0.09_PT011H.grib2 2026-04-23 08:41 859K
20260423T06Z_MSC_RDPS_WindSpeed_IsbL-1015_RLatLon0.09_PT011H.grib2 2026-04-23 08:41 851K
20260423T06Z_MSC_RDPS_WindU_AGL-10m_RLatLon0.09_PT011H.grib2 2026-04-23 08:41 440K
20260423T06Z_MSC_RDPS_WindU_AGL-120m_RLatLon0.09_PT011H.grib2 2026-04-23 08:41 421K
20260423T06Z_MSC_RDPS_WindU_AGL-40m_RLatLon0.09_PT011H.grib2 2026-04-23 08:41 543K
20260423T06Z_MSC_RDPS_WindU_AGL-80m_RLatLon0.09_PT011H.grib2 2026-04-23 08:41 423K
20260423T06Z_MSC_RDPS_WindU_IsbL-0001_RLatLon0.09_PT011H.grib2 2026-04-23 08:41 239K
20260423T06Z_MSC_RDPS_WindU_IsbL-0005_RLatLon0.09_PT011H.grib2 2026-04-23 08:41 281K
20260423T06Z_MSC_RDPS_WindU_IsbL-0010_RLatLon0.09_PT011H.grib2 2026-04-23 08:41 336K
20260423T06Z_MSC_RDPS_WindU_IsbL-0020_RLatLon0.09_PT011H.grib2 2026-04-23 08:41 312K
20260423T06Z_MSC_RDPS_WindU_IsbL-0030_RLatLon0.09_PT011H.grib2 2026-04-23 08:41 354K
20260423T06Z_MSC_RDPS_WindU_IsbL-0050_RLatLon0.09_PT011H.grib2 2026-04-23 08:41 348K
20260423T06Z_MSC_RDPS_WindU_IsbL-0100_RLatLon0.09_PT011H.grib2 2026-04-23 08:41 435K
20260423T06Z_MSC_RDPS_WindU_IsbL-0150_RLatLon0.09_PT011H.grib2 2026-04-23 08:41 395K
20260423T06Z_MSC_RDPS_WindU_IsbL-0175_RLatLon0.09_PT011H.grib2 2026-04-23 08:41 424K
20260423T06Z_MSC_RDPS_WindU_IsbL-0200_RLatLon0.09_PT011H.grib2 2026-04-23 08:41 442K
20260423T06Z_MSC_RDPS_WindU_IsbL-0225_RLatLon0.09_PT011H.grib2 2026-04-23 08:41 444K
20260423T06Z_MSC_RDPS_WindU_IsbL-0250_RLatLon0.09_PT011H.grib2 2026-04-23 08:41 345K
20260423T06Z_MSC_RDPS_WindU_IsbL-0275_RLatLon0.09_PT011H.grib2 2026-04-23 08:41 356K
20260423T06Z_MSC_RDPS_WindU_IsbL-0300_RLatLon0.09_PT011H.grib2 2026-04-23 08:41 350K
20260423T06Z_MSC_RDPS_WindU_IsbL-0350_RLatLon0.09_PT011H.grib2 2026-04-23 08:41 359K
20260423T06Z_MSC_RDPS_WindU_IsbL-0400_RLatLon0.09_PT011H.grib2 2026-04-23 08:41 363K
20260423T06Z_MSC_RDPS_WindU_IsbL-0450_RLatLon0.09_PT011H.grib2 2026-04-23 08:41 363K
20260423T06Z_MSC_RDPS_WindU_IsbL-0500_RLatLon0.09_PT011H.grib2 2026-04-23 08:41 470K
20260423T06Z_MSC_RDPS_WindU_IsbL-0550_RLatLon0.09_PT011H.grib2 2026-04-23 08:41 475K
20260423T06Z_MSC_RDPS_WindU_IsbL-0600_RLatLon0.09_PT011H.grib2 2026-04-23 08:41 483K
20260423T06Z_MSC_RDPS_WindU_IsbL-0650_RLatLon0.09_PT011H.grib2 2026-04-23 08:41 500K
20260423T06Z_MSC_RDPS_WindU_IsbL-0700_RLatLon0.09_PT011H.grib2 2026-04-23 08:41 517K
20260423T06Z_MSC_RDPS_WindU_IsbL-0750_RLatLon0.09_PT011H.grib2 2026-04-23 08:41 530K
20260423T06Z_MSC_RDPS_WindU_IsbL-0800_RLatLon0.09_PT011H.grib2 2026-04-23 08:41 579K
20260423T06Z_MSC_RDPS_WindU_IsbL-0850_RLatLon0.09_PT011H.grib2 2026-04-23 08:41 627K
20260423T06Z_MSC_RDPS_WindU_IsbL-0875_RLatLon0.09_PT011H.grib2 2026-04-23 08:41 643K
20260423T06Z_MSC_RDPS_WindU_IsbL-0900_RLatLon0.09_PT011H.grib2 2026-04-23 08:41 652K
20260423T06Z_MSC_RDPS_WindU_IsbL-0925_RLatLon0.09_PT011H.grib2 2026-04-23 08:41 657K
20260423T06Z_MSC_RDPS_WindU_IsbL-0950_RLatLon0.09_PT011H.grib2 2026-04-23 08:41 654K
20260423T06Z_MSC_RDPS_WindU_IsbL-0970_RLatLon0.09_PT011H.grib2 2026-04-23 08:41 659K
20260423T06Z_MSC_RDPS_WindU_IsbL-0985_RLatLon0.09_PT011H.grib2 2026-04-23 08:41 800K
20260423T06Z_MSC_RDPS_WindU_IsbL-1000_RLatLon0.09_PT011H.grib2 2026-04-23 08:41 797K
20260423T06Z_MSC_RDPS_WindU_IsbL-1015_RLatLon0.09_PT011H.grib2 2026-04-23 08:41 791K
20260423T06Z_MSC_RDPS_WindV_AGL-10m_RLatLon0.09_PT011H.grib2 2026-04-23 08:41 437K
20260423T06Z_MSC_RDPS_WindV_AGL-120m_RLatLon0.09_PT011H.grib2 2026-04-23 08:41 535K
20260423T06Z_MSC_RDPS_WindV_AGL-40m_RLatLon0.09_PT011H.grib2 2026-04-23 08:41 539K
20260423T06Z_MSC_RDPS_WindV_AGL-80m_RLatLon0.09_PT011H.grib2 2026-04-23 08:41 536K
20260423T06Z_MSC_RDPS_WindV_IsbL-0001_RLatLon0.09_PT011H.grib2 2026-04-23 08:41 288K
20260423T06Z_MSC_RDPS_WindV_IsbL-0005_RLatLon0.09_PT011H.grib2 2026-04-23 08:41 323K
20260423T06Z_MSC_RDPS_WindV_IsbL-0010_RLatLon0.09_PT011H.grib2 2026-04-23 08:41 294K
20260423T06Z_MSC_RDPS_WindV_IsbL-0020_RLatLon0.09_PT011H.grib2 2026-04-23 08:41 316K
20260423T06Z_MSC_RDPS_WindV_IsbL-0030_RLatLon0.09_PT011H.grib2 2026-04-23 08:41 356K
20260423T06Z_MSC_RDPS_WindV_IsbL-0050_RLatLon0.09_PT011H.grib2 2026-04-23 08:41 350K
20260423T06Z_MSC_RDPS_WindV_IsbL-0100_RLatLon0.09_PT011H.grib2 2026-04-23 08:41 336K
20260423T06Z_MSC_RDPS_WindV_IsbL-0150_RLatLon0.09_PT011H.grib2 2026-04-23 08:41 394K
20260423T06Z_MSC_RDPS_WindV_IsbL-0175_RLatLon0.09_PT011H.grib2 2026-04-23 08:41 424K
20260423T06Z_MSC_RDPS_WindV_IsbL-0200_RLatLon0.09_PT011H.grib2 2026-04-23 08:41 343K
20260423T06Z_MSC_RDPS_WindV_IsbL-0225_RLatLon0.09_PT011H.grib2 2026-04-23 08:41 344K
20260423T06Z_MSC_RDPS_WindV_IsbL-0250_RLatLon0.09_PT011H.grib2 2026-04-23 08:41 369K
20260423T06Z_MSC_RDPS_WindV_IsbL-0275_RLatLon0.09_PT011H.grib2 2026-04-23 08:41 378K
20260423T06Z_MSC_RDPS_WindV_IsbL-0300_RLatLon0.09_PT011H.grib2 2026-04-23 08:41 374K
20260423T06Z_MSC_RDPS_WindV_IsbL-0350_RLatLon0.09_PT011H.grib2 2026-04-23 08:41 357K
20260423T06Z_MSC_RDPS_WindV_IsbL-0400_RLatLon0.09_PT011H.grib2 2026-04-23 08:41 361K
20260423T06Z_MSC_RDPS_WindV_IsbL-0450_RLatLon0.09_PT011H.grib2 2026-04-23 08:41 464K
20260423T06Z_MSC_RDPS_WindV_IsbL-0500_RLatLon0.09_PT011H.grib2 2026-04-23 08:41 468K
20260423T06Z_MSC_RDPS_WindV_IsbL-0550_RLatLon0.09_PT011H.grib2 2026-04-23 08:41 471K
20260423T06Z_MSC_RDPS_WindV_IsbL-0600_RLatLon0.09_PT011H.grib2 2026-04-23 08:41 480K
20260423T06Z_MSC_RDPS_WindV_IsbL-0650_RLatLon0.09_PT011H.grib2 2026-04-23 08:41 481K
20260423T06Z_MSC_RDPS_WindV_IsbL-0700_RLatLon0.09_PT011H.grib2 2026-04-23 08:41 514K
20260423T06Z_MSC_RDPS_WindV_IsbL-0750_RLatLon0.09_PT011H.grib2 2026-04-23 08:41 526K
20260423T06Z_MSC_RDPS_WindV_IsbL-0800_RLatLon0.09_PT011H.grib2 2026-04-23 08:41 574K
20260423T06Z_MSC_RDPS_WindV_IsbL-0850_RLatLon0.09_PT011H.grib2 2026-04-23 08:41 622K
20260423T06Z_MSC_RDPS_WindV_IsbL-0875_RLatLon0.09_PT011H.grib2 2026-04-23 08:41 639K
20260423T06Z_MSC_RDPS_WindV_IsbL-0900_RLatLon0.09_PT011H.grib2 2026-04-23 08:41 648K
20260423T06Z_MSC_RDPS_WindV_IsbL-0925_RLatLon0.09_PT011H.grib2 2026-04-23 08:41 654K
20260423T06Z_MSC_RDPS_WindV_IsbL-0950_RLatLon0.09_PT011H.grib2 2026-04-23 08:41 652K
20260423T06Z_MSC_RDPS_WindV_IsbL-0970_RLatLon0.09_PT011H.grib2 2026-04-23 08:41 655K
20260423T06Z_MSC_RDPS_WindV_IsbL-0985_RLatLon0.09_PT011H.grib2 2026-04-23 08:41 795K
20260423T06Z_MSC_RDPS_WindV_IsbL-1000_RLatLon0.09_PT011H.grib2 2026-04-23 08:41 791K
20260423T06Z_MSC_RDPS_WindV_IsbL-1015_RLatLon0.09_PT011H.grib2 2026-04-23 08:41 786K